Regional Weather Roundup
Issued by NWS

Home | Current Version | Previous Version | Graphics & Text | Print | Product List | Glossary On
Versions: 1 2 3 4 5 6 7 8 9 10 11 12 13 14 15 16 17 18 19 20 21 22 23 24 25 26 27 28 29 30 31 32 33 34 35 36 37 38 39 40 41 42 43 44 45 46 47 48 49 50
000
ASUS43 KLMK 181410
RWRKY
KENTUCKY REGIONAL WEATHER ROUNDUP
NATIONAL WEATHER SERVICE LOUISVILLE KY
1000 AM EDT WED OCT 18 2017

NOTE "FAIR" INDICATES FEW OR NO CLOUDS BELOW 12,000 FEET
WITH NO SIGNIFICANT WEATHER AND/OR OBSTRUCTIONS TO VISIBILITY.

KYZ001>023-026-027-061>063-070>075-181500-
WESTERN AND SOUTH CENTRAL KENTUCKY

CITY           SKY/WX    TMP DP  RH WIND       PRES   REMARKS
PADUCAH        SUNNY     57  46  66 VRB7      30.27R
HENDERSON      SUNNY     54  47  77 S5        30.30R
OWENSBORO      SUNNY     53  47  79 S7        30.31R
HOPKINSVILLE   SUNNY     54  45  72 S7        30.31R
BOWLING GREEN  SUNNY     50  47  89 CALM      30.34R
GLASGOW        SUNNY     54  47  76 S3        30.34R
$$

KYZ024-025-028>034-038-045-046-053-181500-
NORTH CENTRAL KENTUCKY

CITY           SKY/WX    TMP DP  RH WIND       PRES   REMARKS
LOUISVILLE/SDF MOSUNNY   50  45  83 SE3       30.33R
LOUISVILLE/LOU SUNNY     51  46  83 S5        30.33R
FORT KNOX      SUNNY     52  46  81 CALM      30.31R
$$

KYZ035>037-039>044-047>052-055>060-089>105-181500-
NORTHEAST KENTUCKY

CITY           SKY/WX    TMP DP  RH WIND       PRES   REMARKS
LEXINGTON      SUNNY     54  45  71 S8        30.34R
COVINGTON      SUNNY     54  46  74 S6        30.33R
FRANKFORT      SUNNY     50  43  77 SE6       30.33R
$$

KYZ054-064>069-076>088-106>120-181500-
SOUTHEAST KENTUCKY

CITY           SKY/WX    TMP DP  RH WIND       PRES   REMARKS
JACKSON        SUNNY     49  43  80 CALM      30.35R
LONDON         SUNNY     48  44  86 CALM      30.36R
SOMERSET       SUNNY     46  46 100 SE5       30.38R
MIDDLESBORO    FOG       40  40 100 CALM      30.40R VSB 1/4
MONTICELLO     SUNNY     51  46  83 VRB6      30.37R
$$





USA.gov is the U.S. government's official web portal to all federal, state and local government web resources and services.